Location: Unspecified
(0.0000°N, 0.0000°E)
Time: 12:09:15
(UTC+00:00)

STARLINK 1033 - Pass Details

Date: 11 December 2019
Orbit: 348 x 351 km, 53.0° (Epoch: 11 December)

Event Time Altitude Azimuth Distance (km) Brightness Sun altitude
Rises 19:51:15 0° 212° (SSW) 2,146 7.5 -26.9°
Reaches altitude 10° 19:53:16 10° 210° (SSW) 1,302 6.2 -27.4°
Enters shadow 19:53:23 11° 210° (SSW) 1,254 6.1 -27.4°
